Hiyodori — JD2366 — position and weather

sailwx.info

Track history (hours):
 
Tides and Currents Weather Stations Pressure Air Temp Water Temp Dewpoint Dewpoint Depression Visibility Wind Speed Wind Dir Waves Ship Positions

Hiyodori

Last reported at 2014-Sep-02 21:17 UTC. Time now 2014-Sep-02 23:52 UTC.
Position N 34°52' E 139°14'.

Length 88 m; draft 3.6 m.

Type: Cargo ship. MMSI: 431000132.

Date/timePositionNaut miles runAvg speedWind from/ knotsBaromVisibWave heightAir tempDewpointWater temp
2014-Sep-02 21:17N 34°52' E 139°14'811.3
2014-Sep-02 20:33N 34°57' E 139°23'1111.0
2014-Sep-02 19:33N 35°03' E 139°34'1312.8
2014-Sep-02 18:33N 35°12' E 139°45'1211.9
2014-Sep-02 17:33N 35°23' E 139°41'1 1.2
2014-Sep-02 16:31N 35°24' E 139°41'0 0.0
2014-Sep-02 15:34N 35°24' E 139°41'0 0.0
2014-Sep-02 14:34N 35°24' E 139°41'8 8.1
2014-Sep-02 13:34N 35°17' E 139°46'1211.8
2014-Sep-02 12:33N 35°06' E 139°42'1514.8
2014-Sep-02 11:32N 34°56' E 139°27'47 9.1
2014-Sep-02 06:22N 35°02' E 138°31'43 5.4
2014-Sep-01 22:28N 34°56' E 139°22'1213.0
2014-Sep-01 21:33N 35°03' E 139°34'1414.4
2014-Sep-01 20:33N 35°13' E 139°46'1211.4
2014-Sep-01 19:32N 35°24' E 139°41'0 0.0
2014-Sep-01 18:32N 35°24' E 139°41'0 0.0
2014-Sep-01 17:32N 35°24' E 139°41'8 8.6
2014-Sep-01 16:33N 35°17' E 139°46'1211.6
2014-Sep-01 15:33N 35°05' E 139°43'1313.3
2014-Sep-01 14:33N 34°58' E 139°30'  
2014-Aug-30 07:29N 34°52' E 139°14'1011.2
2014-Aug-30 06:33N 34°58' E 139°24'1111.4
2014-Aug-30 05:33N 35°04' E 139°36'1313.1
2014-Aug-30 04:33N 35°14' E 139°46'1110.8
2014-Aug-30 03:33N 35°24' E 139°40'0 0.2
2014-Aug-30 02:33N 35°24' E 139°40'1 0.7
2014-Aug-30 01:32N 35°24' E 139°41'0 0.0
2014-Aug-30 00:32N 35°24' E 139°41'3 2.6
2014-Aug-29 23:33N 35°22' E 139°42'1111.0
2014-Aug-29 22:33N 35°11' E 139°46'1211.9
2014-Aug-29 21:33N 35°02' E 139°38'237 6.5
2014-Aug-28 09:05N 34°01' E 135°00'611.9
2014-Aug-28 08:33N 34°08' E 134°59'1313.5
2014-Aug-28 07:33N 34°21' E 135°00'1312.6
2014-Aug-28 06:33N 34°31' E 135°10'1110.7
2014-Aug-28 05:33N 34°40' E 135°15'0 0.4
2014-Aug-28 04:33N 34°41' E 135°16'0 0.0
2014-Aug-28 03:33N 34°41' E 135°16'0 0.0
2014-Aug-28 02:24N 34°41' E 135°16'0 0.1
2014-Aug-28 01:33N 34°41' E 135°16'1 0.7
2014-Aug-28 00:33N 34°41' E 135°17'0 0.0
2014-Aug-27 23:33N 34°41' E 135°17'0 0.0
2014-Aug-27 22:33N 34°41' E 135°17'2 1.7
2014-Aug-27 21:32N 34°39' E 135°16'2811.3
2014-Aug-27 19:05N 34°15' E 134°60'611.2
2014-Aug-27 18:33N 34°09' E 134°60'21210.0
2014-Aug-26 21:18N 34°51' E 139°12'1012.4
2014-Aug-26 20:32N 34°56' E 139°22'1211.7
2014-Aug-26 19:33N 35°03' E 139°33'1313.2
2014-Aug-26 18:33N 35°11' E 139°45'1211.5
2014-Aug-26 17:33N 35°22' E 139°41'2 1.8
2014-Aug-26 16:33N 35°24' E 139°41'5 4.6
2014-Aug-26 15:33N 35°20' E 139°43'1211.5
2014-Aug-26 14:33N 35°09' E 139°45'1212.1
2014-Aug-26 13:33N 34°60' E 139°35'19 1.3
2014-Aug-25 22:20N 34°53' E 139°13'1113.6
2014-Aug-25 21:33N 34°59' E 139°24'1413.8
2014-Aug-25 20:33N 35°06' E 139°38'1212.3
2014-Aug-25 19:33N 35°17' E 139°45'8 8.2
2014-Aug-25 18:33N 35°24' E 139°41'0 0.0
2014-Aug-25 17:33N 35°24' E 139°41'0 0.0
2014-Aug-25 16:33N 35°24' E 139°41'1211.6
2014-Aug-25 15:33N 35°14' E 139°47'1313.4
2014-Aug-25 14:33N 35°03' E 139°37'  
Track history (hours):
 
Tides and Currents Weather Stations Pressure Air Temp Water Temp Dewpoint Dewpoint Depression Visibility Wind Speed Wind Dir Waves Ship Positions

Hiyodori

Last reported at 2014-Sep-02 21:17 UTC. Time now 2014-Sep-02 23:52 UTC.
Position N 34°52' E 139°14'.

Length 88 m; draft 3.6 m.

Type: Cargo ship. MMSI: 431000132.

Date/timePositionNaut miles runAvg speedWind from/ knotsBaromVisibWave heightAir tempDewpointWater temp
2014-Sep-02 21:17N 34°52' E 139°14'811.3
2014-Sep-02 20:33N 34°57' E 139°23'1111.0
2014-Sep-02 19:33N 35°03' E 139°34'1312.8
2014-Sep-02 18:33N 35°12' E 139°45'1211.9
2014-Sep-02 17:33N 35°23' E 139°41'1 1.2
2014-Sep-02 16:31N 35°24' E 139°41'0 0.0
2014-Sep-02 15:34N 35°24' E 139°41'0 0.0
2014-Sep-02 14:34N 35°24' E 139°41'8 8.1
2014-Sep-02 13:34N 35°17' E 139°46'1211.8
2014-Sep-02 12:33N 35°06' E 139°42'1514.8
2014-Sep-02 11:32N 34°56' E 139°27'47 9.1
2014-Sep-02 06:22N 35°02' E 138°31'43 5.4
2014-Sep-01 22:28N 34°56' E 139°22'1213.0
2014-Sep-01 21:33N 35°03' E 139°34'1414.4
2014-Sep-01 20:33N 35°13' E 139°46'1211.4
2014-Sep-01 19:32N 35°24' E 139°41'0 0.0
2014-Sep-01 18:32N 35°24' E 139°41'0 0.0
2014-Sep-01 17:32N 35°24' E 139°41'8 8.6
2014-Sep-01 16:33N 35°17' E 139°46'1211.6
2014-Sep-01 15:33N 35°05' E 139°43'1313.3
2014-Sep-01 14:33N 34°58' E 139°30'  
2014-Aug-30 07:29N 34°52' E 139°14'1011.2
2014-Aug-30 06:33N 34°58' E 139°24'1111.4
2014-Aug-30 05:33N 35°04' E 139°36'1313.1
2014-Aug-30 04:33N 35°14' E 139°46'1110.8
2014-Aug-30 03:33N 35°24' E 139°40'0 0.2
2014-Aug-30 02:33N 35°24' E 139°40'1 0.7
2014-Aug-30 01:32N 35°24' E 139°41'0 0.0
2014-Aug-30 00:32N 35°24' E 139°41'3 2.6
2014-Aug-29 23:33N 35°22' E 139°42'1111.0
2014-Aug-29 22:33N 35°11' E 139°46'1211.9
2014-Aug-29 21:33N 35°02' E 139°38'237 6.5
2014-Aug-28 09:05N 34°01' E 135°00'611.9
2014-Aug-28 08:33N 34°08' E 134°59'1313.5
2014-Aug-28 07:33N 34°21' E 135°00'1312.6
2014-Aug-28 06:33N 34°31' E 135°10'1110.7
2014-Aug-28 05:33N 34°40' E 135°15'0 0.4
2014-Aug-28 04:33N 34°41' E 135°16'0 0.0
2014-Aug-28 03:33N 34°41' E 135°16'0 0.0
2014-Aug-28 02:24N 34°41' E 135°16'0 0.1
2014-Aug-28 01:33N 34°41' E 135°16'1 0.7
2014-Aug-28 00:33N 34°41' E 135°17'0 0.0
2014-Aug-27 23:33N 34°41' E 135°17'0 0.0
2014-Aug-27 22:33N 34°41' E 135°17'2 1.7
2014-Aug-27 21:32N 34°39' E 135°16'2811.3
2014-Aug-27 19:05N 34°15' E 134°60'611.2
2014-Aug-27 18:33N 34°09' E 134°60'21210.0
2014-Aug-26 21:18N 34°51' E 139°12'1012.4
2014-Aug-26 20:32N 34°56' E 139°22'1211.7
2014-Aug-26 19:33N 35°03' E 139°33'1313.2
2014-Aug-26 18:33N 35°11' E 139°45'1211.5
2014-Aug-26 17:33N 35°22' E 139°41'2 1.8
2014-Aug-26 16:33N 35°24' E 139°41'5 4.6
2014-Aug-26 15:33N 35°20' E 139°43'1211.5
2014-Aug-26 14:33N 35°09' E 139°45'1212.1
2014-Aug-26 13:33N 34°60' E 139°35'19 1.3
2014-Aug-25 22:20N 34°53' E 139°13'1113.6
2014-Aug-25 21:33N 34°59' E 139°24'1413.8
2014-Aug-25 20:33N 35°06' E 139°38'1212.3
2014-Aug-25 19:33N 35°17' E 139°45'8 8.2
2014-Aug-25 18:33N 35°24' E 139°41'0 0.0
2014-Aug-25 17:33N 35°24' E 139°41'0 0.0
2014-Aug-25 16:33N 35°24' E 139°41'1211.6
2014-Aug-25 15:33N 35°14' E 139°47'1313.4
2014-Aug-25 14:33N 35°03' E 139°37'  

Dump ship's entire track history